STARLINK-4608, 53621

Orbit data source: Space-Track

STARLINK-4608, 53621 is a payload satellite owned by SpaceX/Seattle (US) in LEO that was launched on Sun, 28 Aug 2022 UTC via an FALCON 9 launch vehicle from the Air Force Eastern Test Range (AFETR). Payloads include a variety of satellites, spacecraft, and rockets equipped with specific instruments for various scientific and technological missions. These include communications satellites like Starlink; space stations such as the ISS; scientific satellites like the Hubble; Earth observation satellites from companies like Planet Labs, Umbra, and HawkEye 360; GPS; miniature CubeSats for education and research; and military/defense satellites.

Loading next visibility...
STARLINK-4608 details
Identifier
53621, 2022-104AK
Orbit
LEO
Last TLE update6 hours ago
Origin
Flag of USSpaceX/Seattle (US)
ManufacturerSpaceX/Seattle
MissionOperational Commercial Communications
Bus & MotorSTARLINK, Unknown motor
Mass300 kg wet, ~290 kg dry
Launch date (UTC)
2022-08-28 (2 years ago)
Launch vehicle
FALCON 9
Launch site
Air Force Eastern Test Range (AFETR)
Object type
Payload
Rocket body
Debris
Shape & HBRBox + 1 Pan, 8.86 m
Radar Cross Section13.562 m², Large (>1 m²)

Expand to show TLE details & history

TLE from 6 hours ago
0 STARLINK-4608
1 53621U 22104AK  24361.49842877  .00001248  00000-0  96457-4 0  9991
2 53621  53.2199  41.1877 0001648  78.8932 281.2245 15.08844262128917
Epoch: 2024-12-26T11:57Z
Definitive object data (Epoch: 2024-12-26T11:57:44.245Z)
Latitude-0.00007°
Longitude126.27633°
Altitude540.406 km
Speed7.593 km/s
True Right ascension02h 44m 45s
True Declination0° 00' 00"
Sunlit
Object was in full shadow at TLE epoch
Visualization TLE readout
Latitude10.83773°
Longitude-62.93586°
Altitude539.804 km
Speed7.595 km/s
Apparent Right ascension11h 03m 48s
Apparent Declination-32° 05' 37"
Sunlit
Object is in daylight
Visualization observer readout
Local Sidereal Time16:50:17
Azimuth242.538° WSW
Elevation-17.615°
Doppler factor1
Orbital elements
Apogee altitude541.115 km
Perigee altitude538.835 km
Semi-major axis6,918.112 km
Eccentricity0.0001648
Inclination53.2199°
RAAN41.1877°
Arg. of periapsis78.8932°
True anomaly281.20598°
Mean anomaly281.2245°
Eccentric anomaly281.21524°
Mean motion3.77191 °/min
BSTAR0.000096457
Orbital period95.44 mins
Loading maneuver chart data...
Loading historical data...
Loading historical data...
Loading historical data...
Loading historical data...
Loading historical data...
Loading historical data...
Loading historical data...

STARLINK-4608 Visibility forecast

Observer location: undefined°, undefined

Span
Click to sort rows by Start time (UTC) header in descending order
Start Az.
Max El. time (UTC)
Max El. Az.
Max El.
End time (UTC)
End Az.
6 mins2024-12-27 05:38:56.875Z228.429° WSW2024-12-27 05:40:56.875Z214.092° SW44.956°2024-12-27 05:44:56.875Z50.186° ENE
4 mins2024-12-27 07:18:56.875Z302.673° NW2024-12-27 07:20:56.875Z341° N19.463°2024-12-27 07:22:56.875Z17.149° NNE
4 mins2024-12-27 10:40:56.875Z359.043° N2024-12-27 10:41:56.875Z18.788° NNE18.658°2024-12-27 10:44:56.875Z68.095° E
6 mins2024-12-27 12:18:56.875Z312.343° NW2024-12-27 12:21:56.875Z57.088° ENE44.75°2024-12-27 12:24:56.875Z127.463° SE
|